Triuchirapalli, India

2:05 PM IST on May 28, 2017 (GMT +0530)
Tiruchirappalli

Weather History for VOTR - January, 2013

Change the Weather History Date:

Wednesday, January 30, 2013

  Actual Average Record
Temperature  
Mean Temperature 80 °F -  
Max Temperature 90 °F 87 °F 91 °F (2004)
Min Temperature 69 °F 72 °F 66 °F (2014)
Cooling Degree Days 14    
Growing Degree Days 30 (Base 50)    
Moisture  
Dew Point 68 °F    
Average Humidity 71    
Maximum Humidity 94    
Minimum Humidity 37    
Precipitation  
Precipitation 0.00 in - - ()
Sea Level Pressure  
Sea Level Pressure 29.95 in    
Wind  
Wind Speed 5 mph ()    
Max Wind Speed 14 mph    
Max Gust Speed -    
Visibility 2.5 miles    
Events      
Averages and records for this station are not official NWS values.
T = Trace of Precipitation, MM = Missing Value Source: Averaged Metar Reports

Daily Weather History Graph

Daily Weather History Graph

Search for Another Location

Airport or City:

Trip Planner

Search our weather history database for the weather conditions in past years. The results will help you decide how hot, cold, wet, or windy it might be!

Date:

Astronomy

Jan. 30, 2013 Rise Set
Actual Time 6:38 AM IST 6:18 PM IST
Civil Twilight 6:16 AM IST 6:40 PM IST
Nautical Twilight 5:51 AM IST 7:05 PM IST
Astronomical Twilight 5:25 AM IST 7:31 PM IST
Moon 8:58 PM IST (1/30) 8:34 AM IST (1/30)
Length of Visible Light 12h 23m
Length of Day
11h 39m
Waning Gibbous, 90% of the Moon is Illuminated
Jan 30
Waning Gibbous
Feb 3
Last Quarter
Feb 10
New
Feb 18
First Quarter
Feb 26
Full

Hourly Weather History & Observations

Time (IST) Temp. Heat Index Dew Point Humidity Pressure Visibility Wind Dir Wind Speed Gust Speed Precip Events Conditions
12:10 AM 73.4 °F - 69.8 °F 88% 29.95 in 2.5 mi NNE 3.5 mph - N/A   Haze
12:40 AM 73.4 °F - 69.8 °F 88% 29.95 in 2.5 mi ENE 4.6 mph - N/A   Haze
1:40 AM 73.4 °F - 69.8 °F 88% 29.92 in 1.9 mi ENE 2.3 mph - N/A   Haze
2:10 AM 73.4 °F - 69.8 °F 88% 29.92 in 1.9 mi Calm Calm - N/A   Haze
2:30 AM 72 °F - 67 °F 80% 29.93 in 1 mi Calm Calm - -   Haze
2:40 AM 73.4 °F - 69.8 °F 88% 29.92 in 1.9 mi North 2.3 mph - N/A   Haze
3:10 AM 71.6 °F - 69.8 °F 94% 29.95 in 1.6 mi NNW 2.3 mph - N/A   Haze
3:40 AM 71.6 °F - 69.8 °F 94% 29.95 in 1.6 mi NW 2.3 mph - N/A   Haze
4:10 AM 71.6 °F - 68.0 °F 88% 29.95 in 1.6 mi NE 2.3 mph - N/A   Haze
5:10 AM 69.8 °F - 68.0 °F 94% 29.95 in 1.2 mi East 2.3 mph - N/A   Mist
5:30 AM 70 °F - 67 °F 88% 29.94 in 1 mi NE 2.3 mph - -   Mist
5:40 AM 69.8 °F - 68.0 °F 94% 29.95 in 1.2 mi NE 2.3 mph - N/A   Mist
6:40 AM 71.6 °F - 68.0 °F 88% 29.98 in 0.9 mi Calm Calm - N/A   Mist
7:10 AM 71.6 °F - 68.0 °F 88% 29.98 in 0.9 mi North 2.3 mph - N/A   Mist
7:40 AM 73.4 °F - 66.2 °F 78% 29.98 in 1.2 mi NNE 2.3 mph - N/A   Mist
8:10 AM 73.4 °F - 66.2 °F 78% 30.01 in 1.2 mi NE 2.3 mph - N/A   Mist
8:40 AM 73.4 °F - 69.8 °F 88% 30.01 in 1.2 mi NNE 4.6 mph - N/A   Mist
9:10 AM 73.4 °F - 68.0 °F 83% 30.01 in 1.2 mi North 4.6 mph - N/A   Mist
10:10 AM 77.0 °F - 68.0 °F 74% 30.01 in 2.5 mi North 4.6 mph - N/A   Haze
11:10 AM 82.4 °F 85.4 °F 68.0 °F 62% 30.01 in 3.7 mi East 9.2 mph - N/A   Scattered Clouds
11:30 AM 86 °F - 67 °F 44% 30.00 in 2 mi ENE 6.9 mph - -   Haze
12:10 PM 87.8 °F 91.4 °F 68.0 °F 52% 29.98 in 3.7 mi East 9.2 mph - N/A   Scattered Clouds
12:40 PM 87.8 °F 91.4 °F 68.0 °F 52% 29.98 in 3.7 mi East 11.5 mph - N/A   Scattered Clouds
1:10 PM 87.8 °F 90.4 °F 66.2 °F 49% 29.95 in 3.7 mi ENE 6.9 mph - N/A   Scattered Clouds
1:40 PM 89.6 °F 92.2 °F 66.2 °F 46% 29.92 in 3.7 mi ENE 9.2 mph - N/A   Scattered Clouds
2:10 PM 89.6 °F 92.2 °F 66.2 °F 46% 29.92 in 3.7 mi East 10.4 mph - N/A   Scattered Clouds
2:30 PM 89 °F - 66 °F 37% 29.90 in 2 mi East 10.4 mph - -   Haze
2:40 PM 89.6 °F 92.2 °F 66.2 °F 46% 29.89 in 3.7 mi ENE 10.4 mph - N/A   Scattered Clouds
3:10 PM 89.6 °F 92.2 °F 66.2 °F 46% 29.89 in 3.7 mi East 11.5 mph - N/A   Partly Cloudy
3:40 PM 89.6 °F 92.2 °F 66.2 °F 46% 29.89 in 3.7 mi East 11.5 mph - N/A   Partly Cloudy
4:10 PM 89.6 °F 92.2 °F 66.2 °F 46% 29.89 in 3.7 mi ESE 12.7 mph - N/A   Partly Cloudy
4:40 PM 87.8 °F 90.4 °F 66.2 °F 49% 29.89 in 3.7 mi East 12.7 mph - N/A   Partly Cloudy
5:10 PM 87.8 °F 90.4 °F 66.2 °F 49% 29.89 in 3.7 mi East 11.5 mph - N/A   Partly Cloudy
5:30 PM 87 °F - 66 °F 39% 29.88 in 2 mi East 11.5 mph - -   Haze
5:40 PM 86.0 °F 88.2 °F 66.2 °F 51% 29.89 in 3.7 mi East 12.7 mph - N/A   Partly Cloudy
6:40 PM 82.4 °F 85.4 °F 68.0 °F 62% 29.89 in 3.1 mi East 11.5 mph - N/A   Haze
7:10 PM 80.6 °F 83.9 °F 69.8 °F 70% 29.92 in 3.1 mi East 12.7 mph - N/A   Haze
7:40 PM 78.8 °F - 69.8 °F 74% 29.95 in 3.1 mi East 13.8 mph - N/A   Haze
8:10 PM 78.8 °F - 69.8 °F 74% 29.95 in 3.1 mi East 11.5 mph - N/A   Haze
8:30 PM 78 °F - 69 °F 66% 29.96 in 2 mi East 13.8 mph - -   Haze
8:40 PM 78.8 °F - 68.0 °F 69% 29.95 in 3.1 mi East 13.8 mph - N/A   Haze
9:10 PM 77.0 °F - 69.8 °F 78% 29.95 in 3.1 mi East 11.5 mph - N/A   Haze
9:40 PM 77.0 °F - 69.8 °F 78% 29.98 in 3.1 mi East 13.8 mph - N/A   Haze
10:10 PM 75.2 °F - 69.8 °F 83% 29.98 in 3.1 mi East 9.2 mph - N/A   Haze
10:40 PM 75.2 °F - 69.8 °F 83% 30.01 in 3.1 mi East 6.9 mph - N/A   Haze
11:10 PM 73.4 °F - 68.0 °F 83% 30.01 in 2.5 mi East 6.9 mph - N/A   Haze
11:30 PM 74 °F - 69 °F 78% 30.00 in 2 mi East 6.9 mph - -   Haze
11:40 PM 73.4 °F - 69.8 °F 88% 30.01 in 2.5 mi East 6.9 mph - N/A   Haze